This is the latest recevied weather packets stored in our database for station/object IW2NIA-3. If no packets are shown the sender has not sent any weather packets the latest 10 day(s).
| Time | Temp. | Humidity | Pressure | Rain* | Wind** | Luminosity | Snow |
|---|---|---|---|---|---|---|---|
| 1777540710 | 14.44° C | 54% | 1024 hPa | 0 mm | - | - | - |
| 1777539820 | 14.44° C | 56% | 1024 hPa | 0 mm | - | - | - |
| 1777538915 | 14.44° C | 62% | 1024 hPa | 0 mm | - | - | - |
| 1777538012 | 13.89° C | 62% | 1024 hPa | 0 mm | - | - | - |
| 1777537108 | 13.33° C | 66% | 1023.8 hPa | 0 mm | - | - | - |
| 1777536218 | 13.33° C | 67% | 1023.8 hPa | 0 mm | - | - | - |
| 1777535313 | 12.78° C | 67% | 1023.5 hPa | 0 mm | - | - | - |
| 1777534405 | 12.78° C | 70% | 1023.4 hPa | 0 mm | - | - | - |
| 1777533521 | 12.78° C | 69% | 1023.3 hPa | 0 mm | - | - | - |
| 1777532616 | 12.78° C | 70% | 1023.2 hPa | 0 mm | - | - | - |
| 1777531716 | 12.22° C | 71% | 1023 hPa | 0 mm | - | - | - |
| 1777530826 | 12.22° C | 74% | 1022.9 hPa | 0 mm | - | - | - |
| 1777529922 | 12.22° C | 77% | 1022.8 hPa | 0 mm | - | - | - |
| 1777529018 | 12.22° C | 78% | 1022.6 hPa | 0 mm | - | - | - |
| 1777528115 | 11.67° C | 80% | 1022.5 hPa | 0 mm | - | - | - |
| 1777527210 | 11.67° C | 82% | 1022.3 hPa | 0 mm | - | - | - |
| 1777526325 | 12.22° C | 83% | 1022 hPa | 0 mm | - | - | - |
| 1777525414 | 11.67° C | 83% | 1021.8 hPa | 0 mm | - | - | - |
| 1777524513 | 12.22° C | 84% | 1021.6 hPa | 0 mm | - | - | - |
| 1777523608 | 12.22° C | 84% | 1021.4 hPa | 0 mm | - | - | - |
| 1777522724 | 12.22° C | 83% | 1021.3 hPa | 0 mm | - | - | - |
| 1777521820 | 12.22° C | 83% | 1021.2 hPa | 0 mm | - | - | - |
| 1777520912 | 12.22° C | 84% | 1020.9 hPa | 0 mm | - | - | - |
| 1777520007 | 12.22° C | 84% | 1020.9 hPa | 0 mm | - | - | - |
| 1777519121 | 12.22° C | 85% | 1020.9 hPa | 0 mm | - | - | - |
* Rain latest hour (hover to see other rain measurements)
** Current wind speed in m/s (hover to see current wind gust speed)